Powrót do katalogu

CZ-6A DEB

AktywnySSO
NORAD 54457·DEBRIS·🇨🇳 China

Wystrzelony Nov 11, 2022 z Taiyuan Satellite Launch Center

Loading…

Następne Przeloty (najbliższe 24 godziny)

TLE

ŚwieżeSource: Space-Track

Epoka: Sep 14, 2026, 14:58 UTC

1 54457U 22151GH  26257.62395126  .00001996  00000-0  69277-3 0  9991
2 54457  98.8736 317.1649 0081053 227.2073 132.2277 14.34892504199967

Śledź CZ-6A DEB w czasie rzeczywistym z AllMySat

Download on the App Store